Weather Roundup
Issued by NWS

Home | Current Version | Previous Version | Text Only | Print | Product List | Glossary On
Versions: 1 2 3 4 5 6 7 8 9 10 11 12 13 14 15 16 17 18 19 20 21 22 23 24 25 26 27 28 29 30 31 32 33 34 35 36 37 38 39 40 41 42 43 44 45 46 47 48 49 50
000
NZUS93 KARX 221459
HRRWXR

CURRENT HOURLY OBSERVATIONS ACROSS
MUCH OF THE UPPER MISSISSIPPI VALLEY
NATIONAL WEATHER SERVICE LA CROSSE WI
1000 AM CDT FRI JUL 22 2016


...SOUTHEAST MINNESOTA...


CITY           SKY/WX    TMP DP  RH WIND       PRES   REMARKS
ROCHESTER      MOSUNNY   82  75  79 VRB3      30.03R
ROCHESTER/MAYO CLOUDY    82  76  82 CALM      30.03R HX  90
WINONA         CLOUDY    79  73  83 CALM      30.00S
AUSTIN         SUNNY     81  73  78 S5        30.01S
ALBERT LEA     SUNNY     81  75  83 S9        30.00S
DODGE CENTER   MOSUNNY   84  75  74 CALM      30.03R HX  92
PRESTON        PTSUNNY   78  72  80 SW3       30.04R
OWATONNA       PTSUNNY   81  75  83 E3        30.02R
FARIBAULT      PTSUNNY   84  75  74 E7        30.02S HX  92
$$

...ELSEWHERE IN MINNESOTA...


CITY           SKY/WX    TMP DP  RH WIND       PRES   REMARKS
MINNEAPOLIS    MOSUNNY   85  64  49 VRB7      30.01F
INTNL FALLS    SUNNY     76  63  64 W8        29.98R
DULUTH         MOSUNNY   82  63  52 W10       30.00F
RED WING       SUNNY     84  72  65 CALM      29.99F
REDWOOD FALLS  SUNNY     82  69  64 E8        30.01S
MANKATO        PTSUNNY   82  73  74 NE10      30.01S
WORTHINGTON    CLOUDY    83  79  88 NE7       30.02R HX  94
FAIRMONT         N/A    N/A N/A N/A MISG        N/A
$$

...SOUTHWEST WISCONSIN...


CITY           SKY/WX    TMP DP  RH WIND       PRES   REMARKS
LA CROSSE      CLOUDY    81  73  76 SE3       30.00S
PRAIRIE DU CHI CLOUDY    76  71  83 CALM      30.01F
BOSCOBEL       CLOUDY    78  72  81 CALM      30.02F HAZE
LONE ROCK      NOT AVBL
PLATTEVILLE    PTSUNNY   76  74  93 SW3       30.03F
FORT MC COY    CLOUDY    77  73  86 SW3       30.02F
MAUSTON-NEW LI CLOUDY    78  74  87 W3        30.01S
VIROQUA        CLOUDY    76  72  87 CALM      30.04S
WIS DELLS      NOT AVBL
$$

...ELSEWHERE IN WISCONSIN...


CITY           SKY/WX    TMP DP  RH WIND       PRES   REMARKS
MILWAUKEE      PTSUNNY   82  68  62 W9        29.99S
MADISON        PTSUNNY   79  71  76 VRB7      30.02S
GREEN BAY      SUNNY     82  71  69 NW5       29.97F
EAU CLAIRE     NOT AVBL
BLACK RVR FLS  FAIR      80  75  85 CALM      30.00F
MEDFORD        SUNNY     77  69  77 CALM      30.03F
WAUSAU         SUNNY     80  67  64 VRB3      30.00F
WIS RAPIDS     SUNNY     82  69  64 VRB3      30.02F
MARSHFIELD     SUNNY     83  65  54 CALM      30.01F
RICE LAKE      SUNNY     78  66  67 CALM      30.05F
$$

...NORTHEAST IOWA...


CITY           SKY/WX    TMP DP  RH WIND       PRES   REMARKS
WATERLOO       MOSUNNY   81  72  74 S8        29.99F
DUBUQUE        MOSUNNY   75  71  87 SW6       30.04S
DECORAH        CLOUDY    77  73  88 S5        30.02F
MASON CITY     CLOUDY    80  74  81 S7        30.01F
CHARLES CITY   PTSUNNY   79  75  89 S7        30.02S
OELWEIN        CLOUDY    79  73  83 SW8       30.03S
$$

...ELSEWHERE IN IOWA...


CITY           SKY/WX    TMP DP  RH WIND       PRES   REMARKS
DES MOINES     PTSUNNY   79  72  79 S16       30.00R
IOWA CITY      PTSUNNY   75  69  81 S10G17    30.04S
FORT DODGE     CLOUDY    81  73  78 S8        29.99F
MARSHALLTOWN   MOSUNNY   80  73  79 S10       30.00S
CEDAR RAPIDS   PTSUNNY   76  74  93 S9        30.03R
$$

...NORTHERN ILLINOIS...


CITY           SKY/WX    TMP DP  RH WIND       PRES   REMARKS
CHICAGO-OHARE  PTSUNNY   78  67  68 W13G22    30.03S
CHICAGO-MIDWAY CLOUDY    80  66  62 W10       30.03S
MOLINE         CLOUDY    77  69  76 SW9       30.04R
ROCKFORD       CLOUDY    78  69  73 W8        30.05R
PEORIA         PTSUNNY   74  70  87 SW7       30.06S
$$

NOTE: "FAIR" INDICATES FEW OR NO CLOUDS BELOW 12,000 FEET WITH NO
SIGNIFICANT WEATHER AND/OR OBSTRUCTIONS TO VISIBILITY. WIND
SPEEDS ARE IN MILES-PER-HOUR.




USA.gov is the U.S. government's official web portal to all federal, state and local government web resources and services.